This demonstration page uses our WeatherBlox Daily Observations layout. Learn more.

36.17497, -115.13722

Hourly Observations for February 23, 2015

Temp ( °F °C ) Dew Point ( °F °C ) Humidity (%) Winds ( mph kmh ) Pressure ( in mb ) Visibility ( mi km ) Precip ( " mm )
12:53 am 00:53 Cloudy with Light Rain 42 5.6 37 2.8 82 82 W 6 9 29.94 1014 8 12.87472 0.05 1.27
1:53 am 01:53 Cloudy with Light Rain 40 4.4 35 1.7 83 83 W 7 11 29.95 1014 8 12.87472 0.14 3.556
2:14 am 02:14 Cloudy with Rain 39 4 34 1 81 81 WSW 6 9 29.97 1015 5 8.0467 0 0
2:53 am 02:53 Cloudy with Rain 38 3.3 34 1.1 86 86 NNW 13 20 29.97 1015 6 9.65604 0.13 3.302
3:53 am 03:53 Cloudy with Light Rain 39 3.9 34 1.1 82 82 N 12 19 29.97 1015 10 16.0934 0.1 2.54
4:11 am 04:11 Cloudy with Light Rain 39 3.9 34 1.1 82 82 N 15 24 29.97 1015 10 16.0934 0.01 0.254
4:53 am 04:53 Cloudy 40 4.4 33 0.6 77 77 N 13 20 29.97 1015 10 16.0934 0.02 0.508
5:53 am 05:53 Cloudy 40 4.4 32 0 73 73 NNW 14 22 30 1016 10 16.0934 0 0
6:53 am 06:53 Cloudy with Light Rain 40 4.4 31 -0.6 70 70 N 16 26 30.04 1017 10 16.0934 0 0.0254
7:53 am 07:53 Cloudy 41 5 32 0 70 70 N 15 24 30.06 1018 10 16.0934 0 0.0254
8:53 am 08:53 Mostly Cloudy 43 6.1 32 0 65 65 N 20 31 30.08 1019 10 16.0934 0 0
9:53 am 09:53 Cloudy 43 6.1 30 -1.1 60 60 N 16 26 30.11 1020 10 16.0934 0 0
10:53 am 10:53 Cloudy 45 7.2 30 -1.1 56 56 ENE 7 11 30.14 1021 10 16.0934 0 0
11:53 am 11:53 Cloudy 44 6.7 32 0 63 63 ESE 9 15 30.15 1021 10 16.0934 0 0
12:53 pm 12:53 Cloudy 46 7.8 32 0 58 58 E 7 11 30.14 1021 10 16.0934 0 0
1:53 pm 13:53 Cloudy 47 8.3 32 0 56 56 E 6 9 30.15 1021 10 16.0934 0 0
2:53 pm 14:53 Cloudy 47 8.3 31 -0.6 54 54 ESE 6 9 30.15 1021 10 16.0934 0 0
3:53 pm 15:53 Cloudy 47 8.3 33 0.6 59 59 ESE 12 19 30.17 1022 10 16.0934 0 0
4:53 pm 16:53 Cloudy 46 7.8 32 0 58 58 ESE 10 17 30.19 1022 10 16.0934 0 0
5:53 pm 17:53 Cloudy 46 7.8 31 -0.6 56 56 ESE 7 11 30.21 1023 10 16.0934 0 0
6:53 pm 18:53 Partly Cloudy 45 7.2 33 0.6 63 63 E 7 11 30.21 1023 10 16.0934 0 0
7:53 pm 19:53 Mostly Clear 45 7.2 34 1.1 66 66 ESE 3 6 30.22 1023 10 16.0934 0 0
8:53 pm 20:53 Mostly Clear 45 7.2 34 1.1 66 66 E 5 7 30.21 1023 10 16.0934 0 0
9:53 pm 21:53 Partly Cloudy 45 7.2 33 0.6 63 63 Calm 30.22 1023 10 16.0934 0 0
10:53 pm 22:53 Cloudy 45 7.2 33 0.6 63 63 Calm 30.21 1023 10 16.0934 0 0
11:53 pm 23:53 Cloudy 44 6.7 30 -1.1 58 58 E 5 7 30.22 1023 10 16.0934 0 0

Powered by AerisWeather